User: anonymous   Login
Location: Unspecified
(0.0000°N, 0.0000°E)
Time: 06:06:04
(UTC+00:00)
Language:

Galileo 5 - Orbit

View from above orbital plane
View from above orbital plane
View from above satellite
View from above satellite

Ground track
Ground track

The orbit data is extracted from the following two-line orbital elements,

1 40128U 14050A   18232.11124210 -.00000098  00000-0  00000+0 0  9990
2 40128  50.4996  28.0329 1654867  77.8840 300.1437  1.85519056 27237
Epoch (UTC): 20 August 2018 02:40:11
Eccentricity: 0.1654867
inclination: 50.4996°
perigee height: 16969 km
apogee height: 26229 km
right ascension of ascending node: 28.0329°
argument of perigee: 77.8840°
revolutions per day: 1.85519056
mean anomaly at epoch: 300.1437°
orbit number at epoch: 2723

The dashed part of the orbit path shows where the satellite is in the earth's shadow,  

DLR